STARLINK-4521 (53391 NORAD) Tracking and Keplerian Element Data

This shows tracking and keplerian element data for the satellite.

Feedback or suggestion? Click here.




ElementValue
Catalog53391
NameSTARLINK-4521
Epoch Orbit1676
Epoch Day324.73924441
Epoch Year2022
RAAN133.367
Inclination53.2181
Eccentricity0.0002237
Argument of Perigee46.4083
Mean Anonmoly313.7095
Mean Motion15.08840125
Decay Rate-2.2E-06
L11 53391U 22097D 22324.73924441 -.00000220 00000+0 42819-5 0 9991
L22 53391 53.2181 133.3670 0002237 46.4083 313.7095 15.08840125 16767



Live tracking and technical data element details for STARLINK-4521 (NORAD 53391). STARLINK-4521 can be tracked NOW for your location showing map with azimuth and elevation plus other details from your city location.







IsCatalogInMostPopularTable: catalog: 53391, numindb: 6
Update: records affected: 1



GetName: 53391 STARLINK-4521

Hit Count: updated at: Thu, 08 Dec 2022 20:49:18 GMT